When you browse on this site, cookies collect data to enhance your experience and personalize the content and advertising you see.
Visit our Privacy Policy to learn more. By continuing to use the site, you agree to this use of cookies and data.
  • In Deutschland
  • Länderverzeichnis
  • Für 7 Tage
  • Wassertemperatur
  • Wetterkarte
  • Widgets
  • user-avatar
    Anmelden

    Stündliche Wetter Klagenfurt

    Heute, 6 Juni, Samstag

    Zeit Temperatur Niederschläge Wind Luftdruck Luftfeuchtigkeit
    00:00 +11°C° 0 mm 0 m/S 683 mmHg 93%
    01:00 +12°C° 0 mm 1 m/S 683 mmHg 97%
    02:00 +11°C° 0 mm 0 m/S 683 mmHg 97%
    03:00 +10°C° 0 mm 0 m/S 683 mmHg 97%
    04:00 +10°C° 0 mm 0 m/S 683 mmHg 97%
    05:00 +11°C° 0 mm 0 m/S 683 mmHg 95%
    06:00 +12°C° 0 mm 0 m/S 684 mmHg 94%
    07:00 +13°C° 0 mm 0 m/S 684 mmHg 89%
    08:00 +15°C° 0 mm 0 m/S 685 mmHg 82%
    09:00 +18°C° 0 mm 1 m/S 685 mmHg 76%
    10:00 +20°C° 0 mm 1 m/S 685 mmHg 69%
    11:00 +20°C° 0.4 mm 1 m/S 685 mmHg 70%
    12:00 +20°C° 0.4 mm 1 m/S 685 mmHg 70%
    13:00 +21°C° 0 mm 1 m/S 685 mmHg 70%
    14:00 +21°C° 0.9 mm 1 m/S 684 mmHg 75%
    15:00 +20°C° 0.9 mm 1 m/S 684 mmHg 80%
    16:00 +20°C° 0.9 mm 1 m/S 684 mmHg 85%
    17:00 +19°C° 0.5 mm 1 m/S 683 mmHg 88%
    18:00 +18°C° 0.5 mm 1 m/S 683 mmHg 91%
    19:00 +16°C° 0.5 mm 1 m/S 683 mmHg 94%
    20:00 +15°C° 0 mm 1 m/S 683 mmHg 94%
    21:00 +14°C° 0 mm 1 m/S 683 mmHg 95%
    22:00 +12°C° 0 mm 1 m/S 683 mmHg 96%
    23:00 +12°C° 0 mm 1 m/S 683 mmHg 95%

    Morgen, 7 Juni, Sonntag

    Zeit Temperatur Niederschläge Wind Luftdruck Luftfeuchtigkeit
    00:00 +12°C° 0 mm 1 m/S 683 mmHg 95%
    01:00 +12°C° 0 mm 1 m/S 683 mmHg 95%
    02:00 +11°C° 0 mm 1 m/S 683 mmHg 95%
    03:00 +10°C° 0 mm 0 m/S 683 mmHg 95%
    04:00 +10°C° 0 mm 0 m/S 683 mmHg 95%
    05:00 +11°C° 0 mm 0 m/S 683 mmHg 93%
    06:00 +13°C° 0 mm 0 m/S 684 mmHg 91%
    07:00 +14°C° 0 mm 0 m/S 684 mmHg 89%
    08:00 +16°C° 0 mm 1 m/S 684 mmHg 83%
    09:00 +18°C° 0 mm 1 m/S 684 mmHg 76%
    10:00 +20°C° 0 mm 1 m/S 684 mmHg 70%
    11:00 +19°C° 0.5 mm 2 m/S 684 mmHg 72%
    12:00 +19°C° 0.5 mm 2 m/S 684 mmHg 74%
    13:00 +19°C° 0.5 mm 2 m/S 684 mmHg 77%
    14:00 +19°C° 0.7 mm 2 m/S 684 mmHg 79%
    15:00 +18°C° 0.7 mm 2 m/S 684 mmHg 81%
    16:00 +18°C° 0.7 mm 2 m/S 683 mmHg 83%
    17:00 +17°C° 0.9 mm 2 m/S 683 mmHg 86%
    18:00 +16°C° 0.9 mm 2 m/S 684 mmHg 90%
    19:00 +15°C° 0.9 mm 2 m/S 684 mmHg 93%
    20:00 +14°C° 0.9 mm 1 m/S 684 mmHg 94%
    21:00 +13°C° 0.9 mm 1 m/S 684 mmHg 95%
    22:00 +11°C° 0.9 mm 0 m/S 684 mmHg 97%
    23:00 +11°C° 0.3 mm 0 m/S 684 mmHg 97%

    übermorgen, 8 Juni, Montag

    Zeit Temperatur Niederschläge Wind Luftdruck Luftfeuchtigkeit
    00:00 +11°C° 0.3 mm 0 m/S 684 mmHg 97%
    01:00 +11°C° 0.3 mm 0 m/S 684 mmHg 97%
    02:00 +11°C° 0.8 mm 0 m/S 684 mmHg 97%
    03:00 +11°C° 0.8 mm 0 m/S 684 mmHg 98%
    04:00 +11°C° 0.8 mm 0 m/S 684 mmHg 98%
    05:00 +11°C° 1.6 mm 0 m/S 684 mmHg 98%
    06:00 +11°C° 1.6 mm 0 m/S 685 mmHg 99%
    07:00 +12°C° 1.6 mm 1 m/S 685 mmHg 99%
    08:00 +12°C° 1.6 mm 1 m/S 685 mmHg 99%
    09:00 +12°C° 1.6 mm 1 m/S 685 mmHg 98%
    10:00 +12°C° 1.6 mm 1 m/S 685 mmHg 98%
    11:00 +12°C° 0.9 mm 1 m/S 685 mmHg 97%
    12:00 +12°C° 0.9 mm 1 m/S 685 mmHg 96%
    13:00 +13°C° 0.9 mm 1 m/S 685 mmHg 95%
    14:00 +13°C° 0.7 mm 1 m/S 685 mmHg 96%
    15:00 +12°C° 0.7 mm 1 m/S 685 mmHg 96%
    16:00 +12°C° 0.7 mm 1 m/S 685 mmHg 97%
    17:00 +11°C° 0.5 mm 0 m/S 685 mmHg 97%
    18:00 +11°C° 0.5 mm 0 m/S 685 mmHg 98%
    19:00 +11°C° 0.5 mm 0 m/S 685 mmHg 98%
    20:00 +11°C° 0.9 mm 0 m/S 685 mmHg 98%
    21:00 +11°C° 0.9 mm 0 m/S 686 mmHg 98%
    22:00 +11°C° 0.9 mm 0 m/S 686 mmHg 98%
    23:00 +11°C° 0.9 mm 0 m/S 686 mmHg 99%

    9 Juni, Dienstag

    Zeit Temperatur Niederschläge Wind Luftdruck Luftfeuchtigkeit
    00:00 +11°C° 0.9 mm 0 m/S 686 mmHg 99%
    01:00 +11°C° 0.9 mm 0 m/S 686 mmHg 99%
    02:00 +11°C° 1.3 mm 0 m/S 686 mmHg 99%
    03:00 +11°C° 1.3 mm 0 m/S 685 mmHg 99%
    04:00 +11°C° 1.3 mm 0 m/S 685 mmHg 99%
    05:00 +11°C° 1.4 mm 0 m/S 685 mmHg 99%
    06:00 +11°C° 1.4 mm 0 m/S 686 mmHg 99%
    07:00 +11°C° 1.4 mm 0 m/S 686 mmHg 99%
    08:00 +11°C° 0.8 mm 0 m/S 686 mmHg 99%
    09:00 +11°C° 0.8 mm 0 m/S 686 mmHg 99%
    10:00 +11°C° 0.8 mm 0 m/S 686 mmHg 98%
    11:00 +13°C° 0.3 mm 1 m/S 686 mmHg 96%
    12:00 +14°C° 0.3 mm 1 m/S 686 mmHg 94%
    13:00 +14°C° 0.3 mm 1 m/S 687 mmHg 91%
    14:00 +15°C° 0.2 mm 1 m/S 687 mmHg 87%
    15:00 +16°C° 0.2 mm 1 m/S 687 mmHg 83%
    16:00 +18°C° 0.2 mm 1 m/S 687 mmHg 79%
    17:00 +16°C° 0.2 mm 1 m/S 686 mmHg 83%
    18:00 +14°C° 0.2 mm 0 m/S 686 mmHg 87%
    19:00 +14°C° 0.2 mm 0 m/S 686 mmHg 91%
    20:00 +13°C° 0.2 mm 0 m/S 686 mmHg 93%
    21:00 +12°C° 0.2 mm 0 m/S 686 mmHg 95%
    22:00 +11°C° 0.2 mm 0 m/S 686 mmHg 96%
    23:00 +11°C° 0.1 mm 0 m/S 686 mmHg 96%

    10 Juni, Mittwoch

    Zeit Temperatur Niederschläge Wind Luftdruck Luftfeuchtigkeit
    00:00 +11°C° 0.1 mm 0 m/S 686 mmHg 97%
    01:00 +10°C° 0.1 mm 0 m/S 686 mmHg 97%
    02:00 +10°C° 0.2 mm 0 m/S 686 mmHg 97%
    03:00 +10°C° 0.2 mm 0 m/S 686 mmHg 97%
    04:00 +10°C° 0.2 mm 0 m/S 685 mmHg 97%
    05:00 +11°C° 0.1 mm 0 m/S 686 mmHg 96%
    06:00 +12°C° 0.1 mm 0 m/S 686 mmHg 95%
    07:00 +12°C° 0.1 mm 0 m/S 686 mmHg 94%
    08:00 +13°C° 0.3 mm 0 m/S 686 mmHg 92%
    09:00 +14°C° 0.3 mm 0 m/S 686 mmHg 90%
    10:00 +14°C° 0.3 mm 0 m/S 686 mmHg 88%
    11:00 +16°C° 0.8 mm 1 m/S 686 mmHg 89%
    12:00 +16°C° 0.8 mm 1 m/S 686 mmHg 90%
    13:00 +16°C° 0.8 mm 1 m/S 686 mmHg 91%
    14:00 +15°C° 1.5 mm 1 m/S 686 mmHg 93%
    15:00 +15°C° 1.5 mm 1 m/S 685 mmHg 95%
    16:00 +14°C° 1.5 mm 1 m/S 685 mmHg 97%
    17:00 +13°C° 2.6 mm 0 m/S 685 mmHg 98%
    18:00 +12°C° 2.6 mm 0 m/S 685 mmHg 98%
    19:00 +12°C° 2.6 mm 0 m/S 685 mmHg 98%
    20:00 +11°C° 0.7 mm 0 m/S 685 mmHg 98%
    21:00 +11°C° 0.7 mm 0 m/S 685 mmHg 98%
    22:00 +11°C° 0.7 mm 0 m/S 685 mmHg 98%
    23:00 +11°C° 0.5 mm 0 m/S 685 mmHg 98%

    11 Juni, Donnerstag

    Zeit Temperatur Niederschläge Wind Luftdruck Luftfeuchtigkeit
    00:00 +11°C° 0.5 mm 0 m/S 685 mmHg 98%
    01:00 +11°C° 0.5 mm 0 m/S 684 mmHg 98%
    02:00 +11°C° 1 mm 0 m/S 684 mmHg 98%
    03:00 +10°C° 1 mm 0 m/S 684 mmHg 98%
    04:00 +10°C° 1 mm 0 m/S 684 mmHg 98%
    05:00 +11°C° 1.2 mm 0 m/S 684 mmHg 98%
    06:00 +11°C° 1.2 mm 0 m/S 684 mmHg 98%
    07:00 +11°C° 1.2 mm 0 m/S 684 mmHg 98%
    08:00 +11°C° 0.8 mm 0 m/S 684 mmHg 97%
    09:00 +12°C° 0.8 mm 0 m/S 684 mmHg 97%
    10:00 +12°C° 0.8 mm 0 m/S 684 mmHg 96%
    11:00 +12°C° 0.4 mm 0 m/S 684 mmHg 95%
    12:00 +12°C° 0.4 mm 0 m/S 684 mmHg 95%
    13:00 +13°C° 0.4 mm 0 m/S 684 mmHg 94%
    14:00 +14°C° 0.1 mm 0 m/S 684 mmHg 86%
    15:00 +15°C° 0.1 mm 0 m/S 684 mmHg 78%
    16:00 +19°C° 0.1 mm 1 m/S 684 mmHg 70%
    17:00 +16°C° 0.1 mm 0 m/S 684 mmHg 76%
    18:00 +15°C° 0.1 mm 0 m/S 684 mmHg 81%
    19:00 +14°C° 0.1 mm 0 m/S 684 mmHg 87%
    20:00 +12°C° 0 mm 0 m/S 684 mmHg 90%
    21:00 +12°C° 0 mm 1 m/S 684 mmHg 92%
    22:00 +11°C° 0 mm 1 m/S 684 mmHg 95%
    23:00 +10°C° 0 mm 1 m/S 683 mmHg 95%
    Mehr zeigen